Location: Ferintosh
(52.7647°N, 112.9692°W)
Time: 04:24:55
(UTC+00:00)

Tiros 1 despin weight - Visible Passes

Search period start: 21 May 2024 00:00
Search period end: 31 May 2024 00:00
Orbit: 579 x 621 km, 48.2° (Epoch: 19 May)

Date Brightness Start Highest point End Pass type
(mag) Time Alt. Az. Time Alt. Az. Time Alt. Az.
21 May ? 08:17:32 19° SE 08:17:32 19° SE 08:20:18 10° ESE visible
21 May ? 09:54:10 13° SW 09:57:41 40° SSE 10:01:44 10° E visible
22 May ? 08:27:02 25° SSE 08:27:28 25° SSE 08:31:04 10° E visible
22 May ? 10:03:53 10° WSW 10:08:02 45° S 10:12:10 10° ESE visible
23 May ? 08:36:28 27° SSW 08:37:44 33° SSE 08:41:38 10° E visible
23 May ? 10:14:14 10° WSW 10:18:24 46° S 10:22:33 10° ESE visible
24 May ? 07:09:11 16° ESE 07:09:11 16° ESE 07:10:40 10° ESE visible
24 May ? 08:45:48 22° SW 08:48:02 40° SSE 08:52:06 10° E visible
24 May ? 10:24:36 10° W 10:28:46 44° S 10:32:53 10° ESE visible
25 May ? 07:18:22 25° SE 07:18:22 25° SE 07:21:24 10° E visible
25 May ? 08:54:59 15° WSW 08:58:21 45° S 09:02:30 10° ESE visible
26 May ? 07:27:19 31° S 07:28:01 33° SSE 07:31:55 10° E visible
26 May ? 09:04:29 10° WSW 09:08:41 46° S 09:12:51 10° ESE visible
27 May ? 05:59:08 17° SE 05:59:08 17° SE 06:00:55 10° ESE visible
27 May ? 07:35:39 19° SW 07:38:16 40° SSE 07:42:21 10° E visible
27 May ? 09:14:49 10° W 09:18:59 44° S 09:23:07 10° ESE visible
28 May ? 06:04:21 10° SSW 06:07:59 25° SSE 06:11:36 10° E visible
28 May ? 07:44:22 10° WSW 07:48:33 45° S 07:52:42 10° ESE visible
28 May ? 09:25:11 10° W 09:29:15 39° SSW 09:33:18 10° SE visible
29 May ? 04:35:58 10° SSE 04:37:56 13° SE 04:39:53 10° ESE visible
29 May ? 06:14:13 10° SW 06:18:10 33° SSE 06:22:05 10° E visible
29 May ? 07:54:36 10° WSW 07:58:49 47° S 08:03:00 10° ESE visible
29 May ? 09:35:34 10° W 09:39:28 32° SSW 09:43:20 10° SE visible
30 May ? 04:44:53 10° SSW 04:47:57 19° SSE 04:51:02 10° ESE visible
30 May ? 06:24:15 10° SW 06:28:23 40° SSE 06:32:28 10° E visible
30 May ? 08:04:54 10° W 08:09:05 45° S 08:13:14 10° ESE visible
30 May ? 09:46:03 10° W 09:49:38 25° SSW 09:53:10 10° SSE visible
